FW7622 Weather Reports


Display with metric or nautical units.
time (UTC)temp
F
wind
direction
speed
MPH
gust
MPH
rain 1hr
in
rain 24hr
in
rain mn
in
humidity
%
barometer
mb
20260507165616 49 214 1.0 2.0 0.00 0.00 0.00 45 1010.7
20260507165113 51 177 2.0 3.0 0.00 0.00 0.00 48 1011.1
20260507164609 48 148 1.0 2.0 0.00 0.00 0.00 46 1011.1
20260507164106 48 228 1.0 1.0 0.00 0.00 0.00 48 1011.1
20260507163603 48 25 2.0 5.0 0.00 0.00 0.00 46 1011.1
20260507163101 49 115 1.0 1.0 0.00 0.00 0.00 47 1011.1
20260507162556 51 331 3.0 3.0 0.00 0.00 0.00 45 1011.1
20260507162053 48 151 0.0 1.0 0.00 0.00 0.00 47 1011.1
20260507161549 48 195 0.0 1.0 0.00 0.00 0.00 49 1011.1
20260507161046 47 205 2.0 3.0 0.00 0.00 0.00 50 1011.5
20260507160542 48 201 1.0 2.0 0.00 0.00 0.00 50 1011.5
20260507160039 48 236 0.0 1.0 0.00 0.00 0.00 48 1011.5
20260507155534 50 198 3.0 3.0 0.00 0.00 0.00 49 1011.1
20260507155031 49 212 5.0 6.0 0.00 0.00 0.00 47 1011.5
20260507154528 48 185 2.0 2.0 0.00 0.00 0.00 50 1011.5
20260507154025 46 129 3.0 5.0 0.00 0.00 0.00 52 1011.5
20260507153522 48 204 1.0 2.0 0.00 0.00 0.00 50 1011.5
20260507153018 50 302 4.0 5.0 0.00 0.00 0.00 51 1011.5
20260507152514 47 10 1.0 2.0 0.00 0.00 0.00 53 1011.5
20260507152011 47 315 2.0 2.0 0.00 0.00 0.00 54 1011.5
20260507151507 48 178 1.0 1.0 0.00 0.00 0.00 51 1011.5
20260507151004 47 165 1.0 2.0 0.00 0.00 0.00 51 1011.5
20260507150501 46 38 2.0 2.0 0.00 0.00 0.00 54 1011.5
20260507145957 45 328 3.0 5.0 0.00 0.00 0.00 54 1011.5
20260507145453 47 173 0.0 0.0 0.00 0.00 0.00 50 1011.8
20260507144950 47 222 1.0 1.0 0.00 0.00 0.00 56 1011.8
20260507144447 46 167 2.0 2.0 0.00 0.00 0.00 51 1011.8
20260507143944 46 184 1.0 1.0 0.00 0.00 0.00 55 1011.8
20260507143442 46 36 3.0 5.0 0.00 0.00 0.00 55 1011.8
20260507142938 46 186 2.0 2.0 0.00 0.00 0.00 61 1012.2
20260507142434 46 141 1.0 2.0 0.00 0.00 0.00 58 1012.2
20260507141931 46 200 3.0 3.0 0.00 0.00 0.00 60 1011.8
20260507141427 45 179 2.0 5.0 0.00 0.00 0.00 58 1011.8
20260507140924 45 222 1.0 2.0 0.00 0.00 0.00 62 1012.2
20260507140420 45 236 2.0 3.0 0.00 0.00 0.00 61 1012.2
20260507135919 45 234 3.0 6.0 0.00 0.00 0.00 64 1012.2
20260507135414 44 170 1.0 1.0 0.00 0.00 0.00 65 1012.2
20260507134912 44 317 3.0 3.0 0.00 0.00 0.00 63 1012.2
20260507134408 44 156 1.0 1.0 0.00 0.00 0.00 68 1012.2
20260507133904 42 183 1.0 1.0 0.00 0.00 0.00 68 1012.2
20260507133400 42 177 1.0 2.0 0.00 0.00 0.00 70 1012.2
20260507132859 40 169 0.0 0.0 0.00 0.00 0.00 74 1012.2
20260507132355 40 164 1.0 1.0 0.00 0.00 0.00 74 1012.2
20260507131852 39 161 0.0 0.0 0.00 0.00 0.00 75 1012.5
20260507131349 39 183 1.0 1.0 0.00 0.00 0.00 75 1012.5
20260507130846 38 176 0.0 0.0 0.00 0.00 0.00 76 1012.5
20260507130343 38 172 0.0 1.0 0.00 0.00 0.00 77 1012.5
20260507125842 38 175 0.0 0.0 0.00 0.00 0.00 76 1012.5
20260507125339 38 167 0.0 0.0 0.00 0.00 0.00 79 1012.5
20260507124836 37 167 0.0 0.0 0.00 0.00 0.00 80 1012.5
20260507124332 37 172 0.0 0.0 0.00 0.00 0.00 80 1012.2
20260507123831 37 172 0.0 0.0 0.00 0.00 0.00 82 1012.2
20260507123328 36 172 0.0 0.0 0.00 0.00 0.00 80 1012.5
20260507122824 35 168 0.0 0.0 0.00 0.00 0.00 81 1012.2
20260507122319 35 165 0.0 0.0 0.00 0.00 0.00 84 1012.2
20260507121816 34 164 0.0 0.0 0.00 0.00 0.00 86 1012.2
20260507121312 33 164 0.0 0.0 0.00 0.00 0.00 90 1012.5
20260507120808 33 162 0.0 0.0 0.00 0.00 0.00 90 1012.5
20260507120305 32 160 0.0 0.0 0.00 0.00 0.00 90 1012.2
20260507115801 32 156 0.0 0.0 0.00 0.00 0.00 91 1012.2
20260507115257 31 152 0.0 0.0 0.00 0.00 0.00 92 1012.2
20260507114753 31 156 0.0 0.0 0.00 0.00 0.00 92 1012.2
20260507114250 31 156 0.0 0.0 0.00 0.00 0.00 92 1012.2
20260507113747 30 155 1.0 1.0 0.00 0.00 0.00 92 1011.8
20260507113244 30 158 0.0 0.0 0.00 0.00 0.00 92 1012.2
20260507112742 30 158 0.0 0.0 0.00 0.00 0.00 92 1012.2
20260507112238 30 158 0.0 0.0 0.00 0.00 0.00 92 1011.8
20260507111737 30 158 0.0 0.0 0.00 0.00 0.00 92 1012.2
20260507111233 30 156 0.0 1.0 0.00 0.00 0.00 92 1011.8
20260507110728 30 158 0.0 0.0 0.00 0.00 0.00 93 1011.8
20260507110226 30 158 0.0 0.0 0.00 0.00 0.00 92 1012.2
20260507105722 30 158 0.0 0.0 0.00 0.00 0.00 92 1011.8
20260507105218 30 158 0.0 0.0 0.00 0.00 0.00 92 1012.2
20260507104716 30 158 0.0 0.0 0.00 0.00 0.00 92 1012.2
20260507104212 30 158 0.0 0.0 0.00 0.00 0.00 92 1012.2
20260507103708 30 158 0.0 0.0 0.00 0.00 0.00 92 1012.2
20260507103205 30 158 0.0 0.0 0.00 0.00 0.00 92 1012.2
20260507102701 30 158 0.0 0.0 0.00 0.00 0.00 92 1012.2
20260507102158 30 158 0.0 0.0 0.00 0.00 0.00 92 1012.2
20260507101654 30 158 0.0 0.0 0.00 0.00 0.00 92 1012.2
20260507101149 30 158 0.0 0.0 0.00 0.00 0.00 92 1012.2
20260507100647 30 158 0.0 0.0 0.00 0.00 0.00 92 1012.2
20260507100145 29 158 0.0 0.0 0.00 0.00 0.00 92 1012.2
20260507095643 29 158 0.0 0.0 0.00 0.00 0.00 92 1011.8
20260507095139 30 158 0.0 0.0 0.00 0.00 0.00 92 1012.2
20260507094636 30 158 0.0 0.0 0.00 0.00 0.00 92 1012.2
20260507094132 30 158 0.0 0.0 0.00 0.00 0.00 92 1012.2
20260507093630 30 158 0.0 0.0 0.00 0.00 0.00 91 1011.8
20260507093129 30 158 0.0 0.0 0.00 0.00 0.00 91 1011.8
20260507092625 30 158 0.0 0.0 0.00 0.00 0.00 91 1012.2
20260507092121 30 158 0.0 0.0 0.00 0.00 0.00 91 1012.2
20260507091618 30 158 0.0 0.0 0.00 0.00 0.00 91 1012.2
20260507091114 30 158 0.0 0.0 0.00 0.00 0.00 91 1012.2
20260507090610 30 158 0.0 0.0 0.00 0.00 0.00 91 1012.2
20260507090107 30 158 0.0 0.0 0.00 0.00 0.00 91 1012.2
20260507085604 30 158 0.0 0.0 0.00 0.00 0.00 91 1012.2
20260507085101 30 158 0.0 0.0 0.00 0.00 0.00 90 1012.2
20260507084558 31 158 0.0 0.0 0.00 0.00 0.00 90 1012.2
20260507084055 31 158 0.0 0.0 0.00 0.00 0.00 90 1011.8
20260507083551 32 158 0.0 0.0 0.00 0.00 0.00 90 1012.2
20260507083048 32 158 0.0 0.0 0.00 0.00 0.00 89 1011.8
20260507082544 32 158 0.0 0.0 0.00 0.00 0.00 89 1012.2
20260507082041 32 158 0.0 0.0 0.00 0.00 0.00 89 1012.2
20260507081537 32 158 0.0 0.0 0.00 0.00 0.00 89 1012.2
20260507081034 32 158 0.0 0.0 0.00 0.00 0.00 89 1012.2
20260507080529 33 158 0.0 0.0 0.00 0.00 0.00 88 1011.8
20260507080026 33 158 0.0 0.0 0.00 0.00 0.00 88 1012.2
20260507075521 33 158 0.0 0.0 0.00 0.00 0.00 88 1012.2
20260507075018 33 158 0.0 0.0 0.00 0.00 0.00 87 1012.2
20260507074515 33 158 0.0 0.0 0.00 0.00 0.00 87 1011.8
20260507074014 34 158 0.0 0.0 0.00 0.00 0.00 86 1012.2
20260507073509 34 158 0.0 0.0 0.00 0.00 0.00 86 1012.2
20260507073006 34 158 0.0 0.0 0.00 0.00 0.00 86 1012.2
20260507072504 34 158 0.0 0.0 0.00 0.00 0.00 86 1012.2
20260507072000 34 158 0.0 0.0 0.00 0.00 0.00 85 1012.2
20260507071458 35 158 0.0 0.0 0.00 0.00 0.00 85 1012.5
20260507070954 35 158 0.0 0.0 0.00 0.00 0.00 84 1012.5
20260507070451 35 158 0.0 0.0 0.00 0.00 0.00 84 1012.5
20260507065948 35 158 0.0 0.0 0.00 0.00 0.00 85 1012.9
20260507065445 35 158 0.0 0.0 0.00 0.00 0.00 84 1012.9
20260507064942 35 158 0.0 0.0 0.00 0.00 0.00 85 1012.9
20260507064440 35 158 0.0 0.0 0.00 0.00 0.00 83 1012.9
20260507063938 35 158 0.0 0.0 0.00 0.00 0.00 83 1012.5
20260507063434 35 158 0.0 0.0 0.00 0.00 0.00 84 1012.9
20260507062932 35 158 0.0 0.0 0.00 0.00 0.00 83 1012.9
20260507062429 35 158 0.0 0.0 0.00 0.00 0.00 83 1012.9
20260507061926 35 158 0.0 0.0 0.00 0.00 0.00 83 1012.9
20260507061424 35 158 0.0 0.0 0.00 0.00 0.00 83 1012.9
20260507060922 35 158 0.0 0.0 0.00 0.00 0.00 83 1012.9
20260507060418 36 158 0.0 0.0 0.00 0.00 0.00 83 1012.9
20260507055915 36 158 0.0 0.0 0.00 0.00 0.00 82 1012.9
20260507055410 36 158 0.0 0.0 0.00 0.00 0.00 82 1012.5
20260507054908 36 158 0.0 0.0 0.00 0.00 0.00 82 1013.2
20260507054404 36 158 0.0 0.0 0.00 0.00 0.00 82 1013.2
20260507053901 36 158 0.0 0.0 0.00 0.00 0.00 82 1013.2
20260507053359 36 158 0.0 0.0 0.00 0.00 0.00 83 1013.2
20260507052858 36 158 0.0 0.0 0.00 0.00 0.00 82 1013.2
20260507052354 36 158 0.0 0.0 0.00 0.00 0.00 81 1013.2
20260507051852 36 158 0.0 0.0 0.00 0.00 0.00 80 1012.9
20260507051349 36 158 0.0 0.0 0.00 0.00 0.00 80 1013.2
20260507050846 36 158 0.0 0.0 0.00 0.00 0.00 79 1013.2
20260507050343 36 158 1.0 1.0 0.00 0.00 0.00 79 1013.2
20260507045839 36 162 0.0 0.0 0.00 0.00 0.00 79 1013.2
20260507045335 36 162 0.0 0.0 0.00 0.00 0.00 78 1013.5
20260507044833 36 161 0.0 0.0 0.00 0.00 0.00 78 1013.2
20260507044329 36 176 0.0 0.0 0.00 0.00 0.00 78 1013.2
20260507043825 36 167 0.0 0.0 0.00 0.00 0.00 77 1013.5
20260507043322 36 154 0.0 0.0 0.00 0.00 0.00 77 1013.2
20260507042818 37 154 0.0 0.0 0.00 0.00 0.00 76 1013.5
20260507042314 37 157 0.0 1.0 0.00 0.00 0.00 76 1013.5
20260507041811 37 160 0.0 0.0 0.00 0.00 0.00 76 1013.2
20260507041308 37 160 0.0 0.0 0.00 0.00 0.00 76 1013.5
20260507040805 37 161 0.0 0.0 0.00 0.00 0.00 76 1013.5
20260507040301 37 160 0.0 0.0 0.00 0.00 0.00 75 1013.9
20260507035757 37 159 0.0 1.0 0.00 0.00 0.00 75 1013.5
20260507035252 37 161 0.0 0.0 0.00 0.00 0.00 74 1013.5
20260507034750 37 161 0.0 0.0 0.00 0.00 0.00 75 1013.5
20260507034247 37 161 0.0 0.0 0.00 0.00 0.00 74 1013.9
20260507033746 37 161 0.0 0.0 0.00 0.00 0.00 73 1013.9
20260507033242 38 161 0.0 0.0 0.00 0.00 0.00 74 1013.9
20260507032740 38 160 0.0 0.0 0.00 0.00 0.00 73 1013.9
20260507032236 38 153 0.0 1.0 0.00 0.00 0.00 73 1013.9
20260507031732 38 154 0.0 0.0 0.00 0.00 0.00 72 1013.9
20260507031229 38 160 0.0 0.0 0.00 0.00 0.00 72 1013.9
20260507030726 38 160 0.0 0.0 0.00 0.00 0.00 72 1014.2
20260507030223 38 161 0.0 0.0 0.00 0.00 0.00 71 1013.9
20260507025720 39 155 0.0 0.0 0.00 0.00 0.00 71 1013.9
20260507025217 39 168 0.0 0.0 0.00 0.00 0.00 71 1013.9
20260507024716 39 177 0.0 0.0 0.00 0.00 0.00 71 1013.9
20260507024213 39 177 0.0 0.0 0.00 0.00 0.00 71 1014.2
20260507023708 39 177 0.0 0.0 0.00 0.00 0.00 70 1014.2
20260507023205 39 177 0.0 0.0 0.00 0.00 0.00 69 1014.2
20260507022702 39 177 0.0 0.0 0.00 0.00 0.00 69 1014.2
20260507022158 40 177 0.0 0.0 0.00 0.00 0.00 68 1014.2
20260507021655 39 177 0.0 0.0 0.00 0.00 0.00 68 1014.2
20260507021149 39 176 0.0 0.0 0.00 0.00 0.00 67 1013.9
20260507020648 39 176 0.0 0.0 0.00 0.00 0.00 68 1014.2
20260507020144 39 175 0.0 0.0 0.00 0.00 0.00 67 1014.2
20260507015643 40 175 0.0 0.0 0.00 0.00 0.00 67 1014.2
20260507015140 40 176 0.0 0.0 0.00 0.00 0.00 66 1013.9
20260507014636 40 176 0.0 0.0 0.00 0.00 0.00 65 1013.9
20260507014132 40 177 0.0 0.0 0.00 0.00 0.00 65 1013.9
20260507013629 40 173 0.0 0.0 0.00 0.00 0.00 64 1014.2
20260507013126 40 178 0.0 0.0 0.00 0.00 0.00 64 1013.9
20260507012624 41 132 1.0 1.0 0.00 0.00 0.00 65 1013.9
20260507012119 41 181 1.0 1.0 0.00 0.00 0.00 63 1013.9
20260507011618 41 176 0.0 0.0 0.00 0.00 0.00 63 1013.9
20260507011113 41 177 0.0 0.0 0.00 0.00 0.00 63 1014.2
20260507010608 41 171 0.0 0.0 0.00 0.00 0.00 64 1013.9
20260507010104 41 180 0.0 0.0 0.00 0.00 0.00 62 1014.2
20260507005602 41 259 2.0 3.0 0.00 0.00 0.00 62 1013.9
20260507005058 41 166 0.0 0.0 0.00 0.00 0.00 62 1013.9
20260507004555 41 172 0.0 0.0 0.00 0.00 0.00 62 1013.9
20260507004053 41 210 1.0 2.0 0.00 0.00 0.00 61 1013.9
20260507003548 42 161 0.0 1.0 0.00 0.00 0.00 60 1013.9
20260507003043 42 350 3.0 3.0 0.00 0.00 0.00 60 1013.9
20260507002540 42 184 2.0 3.0 0.00 0.00 0.00 61 1013.9
20260507002036 42 260 1.0 2.0 0.00 0.00 0.00 61 1013.9
20260507001533 42 247 3.0 3.0 0.00 0.00 0.00 60 1014.2
20260507001031 42 264 1.0 1.0 0.00 0.00 0.00 61 1013.9
20260507000526 42 211 1.0 2.0 0.00 0.00 0.00 60 1013.9
20260507000023 42 175 1.0 2.0 0.00 0.00 0.00 60 1014.2
20260506235520 42 161 1.0 2.0 0.00 0.00 0.00 59 1013.9
20260506235015 42 194 1.0 1.0 0.00 0.00 0.00 60 1014.2
20260506234513 42 131 1.0 2.0 0.00 0.00 0.00 60 1013.9
20260506234010 42 187 2.0 3.0 0.00 0.00 0.00 59 1014.2
20260506233506 42 227 3.0 3.0 0.00 0.00 0.00 59 1014.2
20260506233003 42 276 2.0 2.0 0.00 0.00 0.00 60 1014.2
20260506232459 42 232 2.0 2.0 0.00 0.00 0.00 59 1013.9
20260506231955 42 184 2.0 2.0 0.00 0.00 0.00 60 1014.2
20260506231453 43 244 1.0 2.0 0.00 0.00 0.00 60 1014.2
20260506230950 42 282 2.0 3.0 0.00 0.00 0.00 61 1014.2
20260506230446 42 212 2.0 3.0 0.00 0.00 0.00 59 1014.5
20260506225943 42 344 3.0 5.0 0.00 0.00 0.00 60 1013.9
20260506225441 42 218 2.0 2.0 0.00 0.00 0.00 59 1014.2
20260506224937 42 218 3.0 3.0 0.00 0.00 0.00 59 1014.2
20260506224434 42 221 2.0 3.0 0.00 0.00 0.00 59 1014.5
20260506223931 42 212 2.0 3.0 0.00 0.00 0.00 59 1014.2
20260506223426 43 199 1.0 2.0 0.00 0.00 0.00 61 1014.2
20260506222924 42 180 0.0 1.0 0.00 0.00 0.00 60 1014.5
20260506222420 42 256 1.0 2.0 0.00 0.00 0.00 60 1014.2
20260506221917 42 215 1.0 2.0 0.00 0.00 0.00 61 1014.2
20260506221414 42 214 2.0 2.0 0.00 0.00 0.00 61 1014.5
20260506220912 42 169 2.0 5.0 0.00 0.00 0.00 61 1014.2
20260506220407 43 160 3.0 3.0 0.00 0.00 0.00 60 1014.2
20260506215904 43 291 3.0 5.0 0.00 0.00 0.00 59 1014.5
20260506215400 43 276 4.0 5.0 0.00 0.00 0.00 59 1014.2
20260506214856 43 225 4.0 5.0 0.00 0.00 0.00 61 1014.5
20260506214353 43 201 3.0 5.0 0.00 0.00 0.00 60 1014.2
20260506213851 43 135 1.0 2.0 0.00 0.00 0.00 60 1014.2
20260506213348 43 18 3.0 5.0 0.00 0.00 0.00 61 1014.5
20260506212845 43 268 3.0 3.0 0.00 0.00 0.00 61 1014.2
20260506212341 43 132 1.0 2.0 0.00 0.00 0.00 60 1014.5
20260506211836 43 192 0.0 1.0 0.00 0.00 0.00 62 1014.2
20260506211332 42 195 2.0 3.0 0.00 0.00 0.00 60 1014.5
20260506210830 43 212 1.0 3.0 0.00 0.00 0.00 59 1014.2
20260506210327 43 302 2.0 2.0 0.00 0.00 0.00 60 1014.2
20260506205824 42 186 2.0 2.0 0.00 0.00 0.00 60 1014.5
20260506205320 42 245 3.0 6.0 0.00 0.00 0.00 60 1014.5
20260506204817 43 150 1.0 2.0 0.00 0.00 0.00 61 1014.2
20260506204314 43 200 1.0 2.0 0.00 0.00 0.00 62 1014.2
20260506203812 43 185 2.0 2.0 0.00 0.00 0.00 61 1014.5
20260506203309 42 121 3.0 3.0 0.00 0.00 0.00 61 1014.5
20260506202806 43 258 4.0 7.0 0.00 0.00 0.00 61 1014.5
20260506202306 43 224 1.0 2.0 0.00 0.00 0.00 63 1014.5
20260506201759 42 205 2.0 2.0 0.00 0.00 0.00 62 1014.5
20260506201256 42 160 3.0 5.0 0.00 0.00 0.00 63 1014.5
20260506200753 42 187 1.0 1.0 0.00 0.00 0.00 62 1014.2
20260506200249 42 124 1.0 2.0 0.00 0.00 0.00 63 1014.5
20260506195746 42 61 5.0 7.0 0.00 0.00 0.00 63 1014.5
20260506195242 42 219 3.0 5.0 0.00 0.00 0.00 64 1014.2
20260506194739 42 179 1.0 3.0 0.00 0.00 0.00 64 1014.5
20260506194236 42 155 0.0 1.0 0.00 0.00 0.00 64 1014.5
20260506193734 42 242 2.0 3.0 0.00 0.00 0.00 64 1014.5
20260506193230 42 206 1.0 2.0 0.00 0.00 0.00 63 1014.5
20260506192727 43 258 4.0 5.0 0.00 0.00 0.00 64 1014.2
20260506192224 42 351 2.0 2.0 0.00 0.00 0.00 64 1015.0
20260506191720 42 179 1.0 2.0 0.00 0.00 0.00 63 1014.5
20260506191216 42 318 3.0 3.0 0.00 0.00 0.00 64 1014.5
20260506190714 42 227 2.0 2.0 0.00 0.00 0.00 63 1014.5
20260506190210 42 198 2.0 3.0 0.00 0.00 0.00 62 1014.5
20260506185708 42 123 0.0 1.0 0.00 0.00 0.00 64 1014.5
20260506185204 42 206 2.0 2.0 0.00 0.00 0.00 63 1014.5
20260506184702 42 158 0.0 1.0 0.00 0.00 0.00 64 1014.5
20260506184159 42 272 2.0 2.0 0.00 0.00 0.00 63 1014.5
20260506183655 42 198 3.0 3.0 0.00 0.00 0.00 62 1014.5
20260506183151 43 213 1.0 2.0 0.00 0.00 0.00 62 1014.2
20260506182649 43 170 1.0 1.0 0.00 0.00 0.00 62 1014.5
20260506182146 43 184 1.0 2.0 0.00 0.00 0.00 61 1014.2
20260506181644 42 252 3.0 5.0 0.00 0.00 0.00 61 1014.2
20260506181140 42 205 2.0 3.0 0.00 0.00 0.00 61 1014.5
20260506180637 42 206 2.0 3.0 0.00 0.00 0.00 62 1014.5
20260506180134 42 194 1.0 1.0 0.00 0.00 0.00 61 1014.5
20260506175630 42 206 1.0 1.0 0.00 0.00 0.00 63 1014.5
20260506175126 42 214 2.0 2.0 0.00 0.00 0.00 62 1015.0
20260506174625 42 223 0.0 1.0 0.00 0.00 0.00 61 1014.5
20260506174121 42 202 2.0 5.0 0.00 0.00 0.00 61 1014.5
20260506173619 42 156 2.0 2.0 0.00 0.00 0.00 60 1014.5
20260506173116 42 152 0.0 1.0 0.00 0.00 0.00 62 1014.5
20260506172613 42 28 2.0 5.0 0.00 0.00 0.00 61 1015.0
20260506172109 42 342 5.0 6.0 0.00 0.00 0.00 61 1014.5
20260506171607 42 140 0.0 1.0 0.00 0.00 0.00 62 1015.0
20260506171104 41 140 2.0 3.0 0.00 0.00 0.00 61 1015.0
20260506170556 42 114 2.0 3.0 0.00 0.00 0.00 60 1014.5
20260506170053 42 344 3.0 5.0 0.00 0.00 0.00 60 1015.0